Hourly Data Report for July 19, 2021

VINELAND STATION RCS
ONTARIO
Current Station Operator: ECCC - MSC

43°11'00.000" N
79°24'00.000" W
79.20 m
6139148
71171
XVN

Download Data

Hourly Data (July 2021)
Hourly Data Report for July 19, 2021
TIME
LST
Temp Definition
°C
Dew Point Definition
°C
Rel Hum Definition
%
Precip. Amount Definition
mm

Wind Dir Definition
10's deg

Wind Spd Definition
km/h
Visibility Definition
km
Stn Press Definition
kPa
Hmdx Definition


Wind Chill Definition


Weather Definition


00:00 19.3 16.7 85 LegendMM 23 6   100.86     LegendNANA
01:00 19.1 16.4 84 LegendMM 26 5   100.82     LegendNANA
02:00 18.8 16.1 85 LegendMM 24 7   100.77     LegendNANA
03:00 18.9 15.7 82 LegendMM 25 8   100.78     LegendNANA
04:00 18.8 14.9 78 LegendMM 21 7   100.77     LegendNANA
05:00 18.9 14.7 76 LegendMM 21 6   100.79     LegendNANA
06:00 19.6 15.5 78 LegendMM 23 5   100.80     LegendNANA
07:00 21.4 16.6 74 LegendMM 23 7   100.82 26   LegendNANA
08:00 23.3 17.0 68 LegendMM 27 5   100.82 29   LegendNANA
09:00 24.5 17.7 66 LegendMM 29 4   100.83 30   LegendNANA
10:00 25.0 17.9 64 LegendMM 28 5   100.81 31   LegendNANA
11:00 26.1 18.6 63 LegendMM 28 5   100.76 33   LegendNANA
12:00 27.2 18.4 59 LegendMM 31 8   100.74 34   LegendNANA
13:00 28.5 17.8 52 LegendMM 35 6   100.71 34   LegendNANA
14:00 29.2 19.4 56 LegendMM 36 5   100.67 36   LegendNANA
15:00 29.3 19.0 54 LegendMM 29 6   100.63 36   LegendNANA
16:00 29.7 19.1 53 LegendMM 31 7   100.59 37   LegendNANA
17:00 28.0 21.2 66 LegendMM 20 8   100.58 37   LegendNANA
18:00 26.8 21.2 71 LegendMM 21 8   100.56 35   LegendNANA
19:00 25.6 20.8 75 LegendMM 21 8   100.57 34   LegendNANA
20:00 24.2 20.5 80 LegendMM 20 8   100.57 32   LegendNANA
21:00 23.0 19.9 83 LegendMM 19 7   100.61 30   LegendNANA
22:00 22.1 20.0 88 LegendMM 20 8   100.62 30   LegendNANA
23:00 21.8 20.1 90 LegendMM 21 7   100.59 29   LegendNANA

Notes on Data Quality.

Legend

  • E = Estimated
  • M = Missing
  • NA = Not Available*
  • [empty] = Indicates an unobserved value
Date modified: